{"data":{"norad_id":67852,"epoch":"2026-09-19T21:36:06.741792Z","epoch_age_seconds":118321,"freshness":"FRESH","line1":"1 67852U 26034C   26262.90007803  .00015176  00000+0  45949-3 0  9991","line2":"2 67852  53.1581  20.5250 0000360  99.0347 261.0696 15.34390919 33794","mean_motion":15.34390919,"eccentricity":3.6e-5,"inclination_deg":53.1581,"raan_deg":20.525,"arg_perigee_deg":99.0347,"mean_anomaly_deg":261.0696,"bstar":0.00045949,"rev_number":3379,"period_min":93.848313501391,"perigee_km":462.48395976564,"apogee_km":462.97650220627,"semimajor_km":6840.867230986,"source":"CELESTRAK","updated_at":"2026-09-20T09:00:43.673673Z"}}